Time,TemperatureF,DewpointF,PressureIn,WindDirection,WindDirectionDegrees,WindSpeedMPH,WindSpeedGustMPH,Humidity,HourlyPrecipIn,Conditions,Clouds,dailyrainin,SoftwareType,DateUTC
2013-11-21 00:00:00,56.5,43.6,29.98,ENE,77,0.0,0.0,62,0.00,,,0.00,Wunderground v.1.15,2013-11-21 06:00:00,
2013-11-21 00:02:00,56.5,43.7,29.98,ENE,77,0.0,0.0,62,0.00,,---,0.00,VWS V14.01,2013-11-21 06:02:00,
2013-11-21 00:05:00,56.5,43.2,29.98,ENE,77,0.0,0.0,61,0.00,,,0.00,Wunderground v.1.15,2013-11-21 06:05:00,
2013-11-21 00:08:00,56.5,43.2,29.98,ENE,77,0.0,0.0,61,0.00,,---,0.00,VWS V14.01,2013-11-21 06:08:00,
2013-11-21 00:13:00,56.5,45.3,29.98,ENE,77,0.0,0.0,66,0.00,,---,0.00,VWS V14.01,2013-11-21 06:13:00,
2013-11-21 00:15:00,56.5,45.3,29.97,ENE,77,0.0,1.0,66,0.00,,,0.00,Wunderground v.1.15,2013-11-21 06:15:00,
2013-11-21 00:18:00,56.5,46.1,29.97,ENE,77,0.0,1.0,68,0.00,,---,0.00,VWS V14.01,2013-11-21 06:18:00,
2013-11-21 00:20:00,56.5,44.9,29.97,ENE,77,0.0,0.0,65,0.00,,,0.00,Wunderground v.1.15,2013-11-21 06:20:00,
2013-11-21 00:23:00,56.5,45.3,29.97,ENE,77,1.0,1.0,66,0.00,,---,0.00,VWS V14.01,2013-11-21 06:23:00,
2013-11-21 00:25:00,56.5,45.7,29.97,ENE,77,0.0,0.0,67,0.00,,,0.00,Wunderground v.1.15,2013-11-21 06:25:00,
2013-11-21 00:28:00,56.5,44.1,29.97,ENE,77,0.0,1.0,63,0.00,,---,0.00,VWS V14.01,2013-11-21 06:28:00,
2013-11-21 00:30:00,56.5,44.0,29.97,ENE,77,0.0,0.0,63,0.00,,,0.00,Wunderground v.1.15,2013-11-21 06:30:00,
2013-11-21 00:33:00,56.5,44.1,29.97,ENE,77,0.0,0.0,63,0.00,,---,0.00,VWS V14.01,2013-11-21 06:33:00,
2013-11-21 00:35:00,56.5,44.0,29.97,ENE,77,0.0,0.0,63,0.00,,,0.00,Wunderground v.1.15,2013-11-21 06:35:00,
2013-11-21 00:39:00,56.5,44.9,29.97,ENE,77,0.0,0.0,65,0.00,,---,0.00,VWS V14.01,2013-11-21 06:39:00,
2013-11-21 00:40:00,56.5,44.9,29.97,ENE,77,0.0,0.0,65,0.00,,,0.00,Wunderground v.1.15,2013-11-21 06:40:00,
2013-11-21 00:44:00,56.5,44.9,29.97,ENE,77,0.0,0.0,65,0.00,,---,0.00,VWS V14.01,2013-11-21 06:44:00,
2013-11-21 00:45:00,56.5,44.9,29.97,ENE,77,0.0,0.0,65,0.00,,,0.00,Wunderground v.1.15,2013-11-21 06:45:00,
2013-11-21 00:49:00,56.3,47.0,29.97,ENE,77,0.0,0.0,71,0.00,,---,0.00,VWS V14.01,2013-11-21 06:49:00,
2013-11-21 00:50:00,56.3,47.0,29.97,ENE,77,0.0,0.0,71,0.00,,,0.00,Wunderground v.1.15,2013-11-21 06:50:00,
2013-11-21 00:55:00,56.2,46.6,29.97,ENE,77,0.0,0.0,70,0.00,,---,0.00,VWS V14.01,2013-11-21 06:55:00,
2013-11-21 01:00:00,56.0,46.4,29.97,ENE,77,0.0,0.0,70,0.00,,---,0.00,VWS V14.01,2013-11-21 07:00:00,
2013-11-21 01:05:00,56.0,46.0,29.98,ENE,77,0.0,1.0,69,0.00,,---,0.00,VWS V14.01,2013-11-21 07:05:00,
2013-11-21 01:10:00,56.0,47.1,29.98,ENE,77,0.0,0.0,72,0.00,,---,0.00,VWS V14.01,2013-11-21 07:10:00,
2013-11-21 01:15:00,56.0,47.1,29.98,ENE,77,0.0,1.0,72,0.00,,,0.00,Wunderground v.1.15,2013-11-21 07:15:00,
2013-11-21 01:20:00,55.9,46.3,29.98,ENE,77,0.0,0.0,70,0.00,,,0.00,Wunderground v.1.15,2013-11-21 07:20:00,
2013-11-21 01:25:00,55.9,46.3,29.98,ENE,77,0.0,0.0,70,0.00,,---,0.00,VWS V14.01,2013-11-21 07:25:00,
2013-11-21 01:30:00,55.9,45.9,29.98,ENE,77,0.0,0.0,69,0.00,,,0.00,Wunderground v.1.15,2013-11-21 07:30:00,
2013-11-21 01:35:00,55.9,45.9,29.98,ENE,77,0.0,0.0,69,0.00,,,0.00,Wunderground v.1.15,2013-11-21 07:35:00,
2013-11-21 01:40:00,56.0,46.7,29.98,ENE,77,0.0,0.0,71,0.00,,,0.00,Wunderground v.1.15,2013-11-21 07:40:00,
2013-11-21 01:45:00,56.0,47.8,29.98,ENE,77,0.0,0.0,74,0.00,,,0.00,Wunderground v.1.15,2013-11-21 07:45:00,
2013-11-21 01:50:00,55.7,46.4,29.98,ENE,77,0.0,0.0,71,0.00,,,0.00,Wunderground v.1.15,2013-11-21 07:50:00,
2013-11-21 01:55:00,55.7,46.4,29.98,ENE,77,0.0,0.0,71,0.00,,,0.00,Wunderground v.1.15,2013-11-21 07:55:00,
2013-11-21 01:56:00,55.7,46.1,29.98,ENE,77,0.0,0.0,70,0.00,,---,0.00,VWS V14.01,2013-11-21 07:56:00,
2013-11-21 02:01:00,55.9,46.7,29.98,ENE,77,0.0,1.0,71,0.00,,---,0.00,VWS V14.01,2013-11-21 08:01:00,
2013-11-21 02:05:00,55.9,46.6,29.98,ENE,77,0.0,0.0,71,0.00,,,0.00,Wunderground v.1.15,2013-11-21 08:05:00,
2013-11-21 02:06:00,55.9,46.7,29.98,ENE,77,0.0,1.0,71,0.00,,---,0.00,VWS V14.01,2013-11-21 08:06:00,
2013-11-21 02:10:00,56.0,44.4,29.98,ENE,60,0.0,1.0,65,0.00,,,0.00,Wunderground v.1.15,2013-11-21 08:10:00,
2013-11-21 02:11:00,56.0,44.0,29.98,ENE,60,0.0,1.0,64,0.00,,---,0.00,VWS V14.01,2013-11-21 08:11:00,
2013-11-21 02:15:00,56.2,44.2,29.98,ENE,60,1.0,1.0,64,0.00,,,0.00,Wunderground v.1.15,2013-11-21 08:15:00,
2013-11-21 02:16:00,56.2,44.2,29.98,ENE,60,0.0,1.0,64,0.00,,---,0.00,VWS V14.01,2013-11-21 08:16:00,
2013-11-21 02:20:00,56.3,44.3,29.98,ENE,60,0.0,0.0,64,0.00,,,0.00,Wunderground v.1.15,2013-11-21 08:20:00,
2013-11-21 02:22:00,56.3,44.3,29.98,ENE,60,0.0,0.0,64,0.00,,---,0.00,VWS V14.01,2013-11-21 08:22:00,
2013-11-21 02:25:00,56.3,44.3,29.98,ENE,60,0.0,0.0,64,0.00,,,0.00,Wunderground v.1.15,2013-11-21 08:25:00,
2013-11-21 02:27:00,56.2,44.2,29.97,ENE,60,1.0,2.0,64,0.00,,---,0.00,VWS V14.01,2013-11-21 08:27:00,
2013-11-21 02:30:00,56.2,45.8,29.97,ENE,60,0.0,0.0,68,0.00,,,0.00,Wunderground v.1.15,2013-11-21 08:30:00,
2013-11-21 02:32:00,56.2,45.8,29.97,ENE,60,0.0,0.0,68,0.00,,---,0.00,VWS V14.01,2013-11-21 08:32:00,
2013-11-21 02:35:00,56.2,44.2,29.97,ENE,60,0.0,0.0,64,0.00,,,0.00,Wunderground v.1.15,2013-11-21 08:35:00,
2013-11-21 02:38:00,56.3,44.3,29.97,ENE,60,0.0,0.0,64,0.00,,---,0.00,VWS V14.01,2013-11-21 08:38:00,
2013-11-21 02:40:00,56.5,44.5,29.98,ENE,60,0.0,0.0,64,0.00,,,0.00,Wunderground v.1.15,2013-11-21 08:40:00,
2013-11-21 02:43:00,56.5,43.7,29.98,ENE,60,0.0,0.0,62,0.00,,---,0.00,VWS V14.01,2013-11-21 08:43:00,
2013-11-21 02:45:00,56.6,43.7,29.98,ENE,60,0.0,0.0,62,0.00,,,0.00,Wunderground v.1.15,2013-11-21 08:45:00,
2013-11-21 02:48:00,56.6,42.9,29.98,ENE,60,0.0,0.0,60,0.00,,---,0.00,VWS V14.01,2013-11-21 08:48:00,
2013-11-21 02:50:00,56.7,43.4,29.98,ENE,60,0.0,0.0,61,0.00,,,0.00,Wunderground v.1.15,2013-11-21 08:50:00,
2013-11-21 02:53:00,56.9,46.1,29.98,ENE,60,0.0,0.0,67,0.00,,---,0.00,VWS V14.01,2013-11-21 08:53:00,
2013-11-21 02:55:00,56.9,44.4,29.98,ENE,60,0.0,0.0,63,0.00,,,0.00,Wunderground v.1.15,2013-11-21 08:55:00,
2013-11-21 02:58:00,56.9,46.5,29.98,ENE,60,0.0,0.0,68,0.00,,---,0.00,VWS V14.01,2013-11-21 08:58:00,
2013-11-21 03:00:00,56.9,46.4,29.98,ENE,60,0.0,0.0,68,0.00,,,0.00,Wunderground v.1.15,2013-11-21 09:00:00,
2013-11-21 03:03:00,56.7,44.7,29.98,ENE,60,0.0,0.0,64,0.00,,---,0.00,VWS V14.01,2013-11-21 09:03:00,
2013-11-21 03:05:00,56.7,44.7,29.98,ENE,60,0.0,0.0,64,0.00,,,0.00,Wunderground v.1.15,2013-11-21 09:05:00,
2013-11-21 03:09:00,56.7,44.7,29.98,ENE,60,0.0,0.0,64,0.00,,---,0.00,VWS V14.01,2013-11-21 09:09:00,
2013-11-21 03:10:00,56.7,44.2,29.98,ENE,60,0.0,0.0,63,0.00,,,0.00,Wunderground v.1.15,2013-11-21 09:10:00,
2013-11-21 03:14:00,56.7,45.1,29.98,ENE,60,0.0,0.0,65,0.00,,---,0.00,VWS V14.01,2013-11-21 09:14:00,
2013-11-21 03:15:00,56.7,45.1,29.98,ENE,60,0.0,0.0,65,0.00,,,0.00,Wunderground v.1.15,2013-11-21 09:15:00,
2013-11-21 03:19:00,56.7,45.1,29.98,ENE,60,0.0,0.0,65,0.00,,---,0.00,VWS V14.01,2013-11-21 09:19:00,
2013-11-21 03:20:00,56.7,45.1,29.98,ENE,60,0.0,0.0,65,0.00,,,0.00,Wunderground v.1.15,2013-11-21 09:20:00,
2013-11-21 03:24:00,56.7,46.3,29.97,ENE,60,0.0,0.0,68,0.00,,---,0.00,VWS V14.01,2013-11-21 09:24:00,
2013-11-21 03:25:00,56.7,46.3,29.97,ENE,60,0.0,0.0,68,0.00,,,0.00,Wunderground v.1.15,2013-11-21 09:25:00,
2013-11-21 03:29:00,56.6,45.0,29.97,ENE,60,0.0,0.0,65,0.00,,---,0.00,VWS V14.01,2013-11-21 09:29:00,
2013-11-21 03:30:00,56.6,45.0,29.97,ENE,60,0.0,0.0,65,0.00,,,0.00,Wunderground v.1.15,2013-11-21 09:30:00,
2013-11-21 03:34:00,56.5,44.9,29.97,ENE,60,0.0,1.0,65,0.00,,---,0.00,VWS V14.01,2013-11-21 09:34:00,
2013-11-21 03:35:00,56.5,44.9,29.97,ENE,60,0.0,0.0,65,0.00,,,0.00,Wunderground v.1.15,2013-11-21 09:35:00,
2013-11-21 03:39:00,56.5,44.5,29.97,ENE,60,0.0,1.0,64,0.00,,---,0.00,VWS V14.01,2013-11-21 09:39:00,
2013-11-21 03:40:00,56.5,44.5,29.97,ENE,60,0.0,0.0,64,0.00,,,0.00,Wunderground v.1.15,2013-11-21 09:40:00,
2013-11-21 03:44:00,56.5,44.1,29.97,ENE,60,0.0,0.0,63,0.00,,---,0.00,VWS V14.01,2013-11-21 09:44:00,
2013-11-21 03:45:00,56.5,44.0,29.97,ENE,60,0.0,0.0,63,0.00,,,0.00,Wunderground v.1.15,2013-11-21 09:45:00,
2013-11-21 03:49:00,56.5,46.5,29.97,ENE,60,0.0,0.0,69,0.00,,---,0.00,VWS V14.01,2013-11-21 09:49:00,
2013-11-21 03:50:00,56.5,46.4,29.97,ENE,60,0.0,0.0,69,0.00,,,0.00,Wunderground v.1.15,2013-11-21 09:50:00,
2013-11-21 03:54:00,56.5,46.1,29.97,ENE,60,0.0,0.0,68,0.00,,---,0.00,VWS V14.01,2013-11-21 09:54:00,
2013-11-21 03:55:00,56.5,46.1,29.97,ENE,60,0.0,0.0,68,0.00,,,0.00,Wunderground v.1.15,2013-11-21 09:55:00,
2013-11-21 03:59:00,56.3,47.4,29.96,ENE,60,2.0,3.0,72,0.00,,---,0.00,VWS V14.01,2013-11-21 09:59:00,
2013-11-21 04:04:00,56.2,45.0,29.97,ENE,63,0.0,5.0,66,0.00,,---,0.00,VWS V14.01,2013-11-21 10:04:00,
2013-11-21 04:05:00,56.2,45.0,29.96,ENE,63,1.0,2.0,66,0.00,,,0.00,Wunderground v.1.15,2013-11-21 10:05:00,
2013-11-21 04:09:00,56.3,45.1,29.97,ENE,63,0.0,5.0,66,0.00,,---,0.00,VWS V14.01,2013-11-21 10:09:00,
2013-11-21 04:14:00,56.5,45.7,29.97,ENE,63,0.0,0.0,67,0.00,,---,0.00,VWS V14.01,2013-11-21 10:14:00,
2013-11-21 04:15:00,56.5,45.7,29.97,ENE,63,0.0,1.0,67,0.00,,,0.00,Wunderground v.1.15,2013-11-21 10:15:00,
2013-11-21 04:20:00,56.3,47.0,29.97,ENE,63,0.0,0.0,71,0.00,,---,0.00,VWS V14.01,2013-11-21 10:20:00,
2013-11-21 04:25:00,56.2,47.7,29.96,ENE,63,0.0,0.0,73,0.00,,,0.00,Wunderground v.1.15,2013-11-21 10:25:00,
2013-11-21 04:30:00,56.0,45.6,29.96,ENE,63,0.0,0.0,68,0.00,,,0.00,Wunderground v.1.15,2013-11-21 10:30:00,
2013-11-21 04:31:00,55.9,45.5,29.97,ENE,63,0.0,0.0,68,0.00,,---,0.00,VWS V14.01,2013-11-21 10:31:00,
2013-11-21 04:35:00,55.9,45.5,29.97,ENE,63,0.0,0.0,68,0.00,,,0.00,Wunderground v.1.15,2013-11-21 10:35:00,
2013-11-21 04:36:00,55.9,45.5,29.97,ENE,63,0.0,0.0,68,0.00,,---,0.00,VWS V14.01,2013-11-21 10:36:00,
2013-11-21 04:40:00,56.0,45.2,29.97,ENE,63,0.0,0.0,67,0.00,,,0.00,Wunderground v.1.15,2013-11-21 10:40:00,
2013-11-21 04:41:00,56.0,45.2,29.97,ENE,63,0.0,0.0,67,0.00,,---,0.00,VWS V14.01,2013-11-21 10:41:00,
2013-11-21 04:45:00,56.2,46.2,29.97,ENE,63,0.0,0.0,69,0.00,,,0.00,Wunderground v.1.15,2013-11-21 10:45:00,
2013-11-21 04:47:00,56.2,46.2,29.97,ENE,61,0.0,0.0,69,0.00,,---,0.00,VWS V14.01,2013-11-21 10:47:00,
2013-11-21 04:52:00,56.2,46.9,29.97,ENE,61,0.0,0.0,71,0.00,,---,0.00,VWS V14.01,2013-11-21 10:52:00,
2013-11-21 04:55:00,56.2,46.5,29.97,ENE,63,0.0,0.0,70,0.00,,,0.00,Wunderground v.1.15,2013-11-21 10:55:00,
2013-11-21 04:57:00,56.2,46.6,29.97,ENE,63,0.0,0.0,70,0.00,,---,0.00,VWS V14.01,2013-11-21 10:57:00,
2013-11-21 05:00:00,56.2,46.5,29.97,ENE,63,0.0,0.0,70,0.00,,,0.00,Wunderground v.1.15,2013-11-21 11:00:00,
2013-11-21 05:03:00,56.2,46.2,29.97,ENE,63,2.0,2.0,69,0.00,,---,0.00,VWS V14.01,2013-11-21 11:03:00,
2013-11-21 05:05:00,56.3,45.9,29.97,ENE,63,0.0,0.0,68,0.00,,,0.00,Wunderground v.1.15,2013-11-21 11:05:00,
2013-11-21 05:08:00,56.3,45.9,29.97,ENE,63,0.0,2.0,68,0.00,,---,0.00,VWS V14.01,2013-11-21 11:08:00,
2013-11-21 05:10:00,56.3,46.3,29.96,ENE,63,0.0,0.0,69,0.00,,,0.00,Wunderground v.1.15,2013-11-21 11:10:00,
2013-11-21 05:13:00,56.3,45.5,29.96,ENE,63,1.0,2.0,67,0.00,,---,0.00,VWS V14.01,2013-11-21 11:13:00,
2013-11-21 05:15:00,56.5,45.7,29.97,ENE,63,0.0,0.0,67,0.00,,,0.00,Wunderground v.1.15,2013-11-21 11:15:00,
2013-11-21 05:18:00,56.6,45.8,29.97,ENE,61,0.0,2.0,67,0.00,,---,0.00,VWS V14.01,2013-11-21 11:18:00,
2013-11-21 05:23:00,56.7,45.9,29.97,ENE,63,0.0,0.0,67,0.00,,---,0.00,VWS V14.01,2013-11-21 11:23:00,
2013-11-21 05:25:00,56.7,47.4,29.97,ENE,63,0.0,0.0,71,0.00,,,0.00,Wunderground v.1.15,2013-11-21 11:25:00,
2013-11-21 05:28:00,56.7,48.5,29.97,ENE,63,0.0,1.0,74,0.02,,---,0.02,VWS V14.01,2013-11-21 11:28:00,
2013-11-21 05:30:00,56.7,48.9,29.97,ENE,63,0.0,0.0,75,0.13,,,0.02,Wunderground v.1.15,2013-11-21 11:30:00,
2013-11-21 05:33:00,56.6,49.8,29.97,ENE,63,0.0,0.0,78,0.02,,---,0.02,VWS V14.01,2013-11-21 11:33:00,
2013-11-21 05:38:00,56.5,50.4,29.97,ENE,63,0.0,0.0,80,0.02,,---,0.02,VWS V14.01,2013-11-21 11:38:00,
2013-11-21 05:40:00,56.3,50.2,29.97,ENE,63,0.0,0.0,80,0.04,,,0.02,Wunderground v.1.15,2013-11-21 11:40:00,
2013-11-21 05:43:00,56.2,50.1,29.97,ENE,63,0.0,0.0,80,0.02,,---,0.02,VWS V14.01,2013-11-21 11:43:00,
2013-11-21 05:45:00,55.9,50.8,29.97,ENE,63,0.0,0.0,83,0.00,,,0.02,Wunderground v.1.15,2013-11-21 11:45:00,
2013-11-21 05:49:00,55.6,51.2,29.97,ENE,63,0.0,0.0,85,0.02,,---,0.02,VWS V14.01,2013-11-21 11:49:00,
2013-11-21 05:50:00,55.6,51.2,29.98,ENE,63,0.0,0.0,85,0.00,,,0.02,Wunderground v.1.15,2013-11-21 11:50:00,
2013-11-21 05:54:00,55.3,51.2,29.97,ENE,63,0.0,0.0,86,0.02,,---,0.02,VWS V14.01,2013-11-21 11:54:00,
2013-11-21 05:55:00,55.1,51.0,29.97,ENE,63,0.0,0.0,86,0.00,,,0.02,Wunderground v.1.15,2013-11-21 11:55:00,
2013-11-21 05:59:00,55.0,51.5,29.98,ENE,63,0.0,0.0,88,0.02,,---,0.02,VWS V14.01,2013-11-21 11:59:00,
2013-11-21 06:00:00,55.0,51.5,29.98,ENE,63,0.0,0.0,88,0.00,,,0.02,Wunderground v.1.15,2013-11-21 12:00:00,
2013-11-21 06:05:00,54.8,51.6,29.97,ENE,63,0.0,0.0,89,0.02,,---,0.02,VWS V14.01,2013-11-21 12:05:00,
2013-11-21 06:10:00,54.8,51.6,29.97,ENE,63,0.0,0.0,89,0.00,,,0.02,Wunderground v.1.15,2013-11-21 12:10:00,
2013-11-21 06:15:00,54.8,51.6,29.97,ENE,63,0.0,0.0,89,0.00,,,0.02,Wunderground v.1.15,2013-11-21 12:15:00,
2013-11-21 06:16:00,54.8,51.6,29.97,ENE,63,0.0,0.0,89,0.02,,---,0.02,VWS V14.01,2013-11-21 12:16:00,
2013-11-21 06:20:00,54.7,51.8,29.97,ENE,63,0.0,0.0,90,0.00,,,0.02,Wunderground v.1.15,2013-11-21 12:20:00,
2013-11-21 06:21:00,54.5,51.6,29.97,ENE,63,0.0,0.0,90,0.02,,---,0.02,VWS V14.01,2013-11-21 12:21:00,
2013-11-21 06:25:00,54.5,51.3,29.97,ENE,63,0.0,0.0,89,0.00,,,0.02,Wunderground v.1.15,2013-11-21 12:25:00,
2013-11-21 06:26:00,54.5,51.3,29.97,ENE,63,0.0,0.0,89,0.02,,---,0.02,VWS V14.01,2013-11-21 12:26:00,
2013-11-21 06:30:00,54.5,51.6,29.98,ENE,63,0.0,0.0,90,0.00,,,0.02,Wunderground v.1.15,2013-11-21 12:30:00,
2013-11-21 06:31:00,54.5,51.6,29.98,ENE,63,0.0,0.0,90,0.00,,---,0.02,VWS V14.01,2013-11-21 12:31:00,
2013-11-21 06:35:00,54.4,50.9,29.99,ENE,63,0.0,0.0,88,0.00,,,0.02,Wunderground v.1.15,2013-11-21 12:35:00,
2013-11-21 06:36:00,54.4,50.9,29.99,ENE,61,0.0,0.0,88,0.00,,---,0.02,VWS V14.01,2013-11-21 12:36:00,
2013-11-21 06:40:00,54.4,50.9,29.99,ENE,61,0.0,0.0,88,0.00,,,0.03,Wunderground v.1.15,2013-11-21 12:40:00,
2013-11-21 06:42:00,54.4,51.2,29.99,ENE,61,0.0,0.0,89,0.01,,---,0.03,VWS V14.01,2013-11-21 12:42:00,
2013-11-21 06:45:00,54.5,51.6,29.99,ENE,61,0.0,0.0,90,0.00,,,0.03,Wunderground v.1.15,2013-11-21 12:45:00,
2013-11-21 06:47:00,54.5,51.6,29.99,ENE,61,0.0,0.0,90,0.01,,---,0.03,VWS V14.01,2013-11-21 12:47:00,
2013-11-21 06:50:00,54.5,51.6,29.99,ENE,61,0.0,0.0,90,0.00,,,0.03,Wunderground v.1.15,2013-11-21 12:50:00,
2013-11-21 06:52:00,54.4,51.5,29.99,ENE,61,0.0,0.0,90,0.01,,---,0.03,VWS V14.01,2013-11-21 12:52:00,
2013-11-21 06:55:00,54.4,52.1,29.99,ENE,61,0.0,0.0,92,0.00,,,0.03,Wunderground v.1.15,2013-11-21 12:55:00,
2013-11-21 06:57:00,54.5,52.2,29.99,ENE,61,0.0,0.0,92,0.01,,---,0.03,VWS V14.01,2013-11-21 12:57:00,
2013-11-21 07:00:00,54.5,52.2,29.99,ENE,61,0.0,0.0,92,0.00,,,0.03,Wunderground v.1.15,2013-11-21 13:00:00,
2013-11-21 07:02:00,54.5,52.2,29.99,ENE,61,0.0,0.0,92,0.01,,---,0.03,VWS V14.01,2013-11-21 13:02:00,
2013-11-21 07:05:00,54.4,52.1,30.00,ENE,61,0.0,0.0,92,0.00,,,0.03,Wunderground v.1.15,2013-11-21 13:05:00,
2013-11-21 07:07:00,54.4,52.1,30.00,ENE,61,0.0,0.0,92,0.01,,---,0.03,VWS V14.01,2013-11-21 13:07:00,
2013-11-21 07:12:00,54.4,52.1,30.00,ENE,61,0.0,0.0,92,0.01,,---,0.03,VWS V14.01,2013-11-21 13:12:00,
2013-11-21 07:15:00,54.4,52.4,30.00,ENE,61,0.0,0.0,93,0.00,,,0.03,Wunderground v.1.15,2013-11-21 13:15:00,
2013-11-21 07:17:00,54.4,52.4,30.00,ENE,61,0.0,0.0,93,0.01,,---,0.03,VWS V14.01,2013-11-21 13:17:00,
2013-11-21 07:20:00,54.4,52.4,30.00,ENE,61,0.0,0.0,93,0.00,,,0.03,Wunderground v.1.15,2013-11-21 13:20:00,
2013-11-21 07:22:00,54.5,52.5,30.00,ENE,61,0.0,0.0,93,0.01,,---,0.03,VWS V14.01,2013-11-21 13:22:00,
2013-11-21 07:25:00,54.5,52.5,30.00,ENE,61,0.0,0.0,93,0.00,,,0.03,Wunderground v.1.15,2013-11-21 13:25:00,
2013-11-21 07:27:00,54.5,52.5,30.01,ENE,61,0.0,0.0,93,0.01,,---,0.03,VWS V14.01,2013-11-21 13:27:00,
2013-11-21 07:30:00,54.4,52.4,30.00,ENE,61,0.0,0.0,93,0.00,,,0.03,Wunderground v.1.15,2013-11-21 13:30:00,
2013-11-21 07:32:00,54.4,52.4,30.00,ENE,61,0.0,0.0,93,0.01,,---,0.03,VWS V14.01,2013-11-21 13:32:00,
2013-11-21 07:35:00,54.4,52.4,30.01,ENE,61,0.0,0.0,93,0.00,,,0.03,Wunderground v.1.15,2013-11-21 13:35:00,
2013-11-21 07:37:00,54.4,52.4,30.00,ENE,61,0.0,0.0,93,0.01,,---,0.03,VWS V14.01,2013-11-21 13:37:00,
2013-11-21 07:42:00,54.4,52.7,30.00,ENE,61,0.0,0.0,94,0.00,,---,0.03,VWS V14.01,2013-11-21 13:42:00,
2013-11-21 07:45:00,54.4,52.7,30.00,ENE,61,0.0,0.0,94,0.00,,,0.03,Wunderground v.1.15,2013-11-21 13:45:00,
2013-11-21 07:47:00,54.4,52.7,30.01,ENE,61,0.0,0.0,94,0.00,,---,0.03,VWS V14.01,2013-11-21 13:47:00,
2013-11-21 07:50:00,54.4,52.7,30.01,ENE,61,0.0,0.0,94,0.00,,,0.03,Wunderground v.1.15,2013-11-21 13:50:00,
2013-11-21 07:53:00,54.4,52.7,30.01,ENE,61,0.0,0.0,94,0.00,,---,0.03,VWS V14.01,2013-11-21 13:53:00,
2013-11-21 07:55:00,54.4,52.7,30.01,ENE,61,0.0,0.0,94,0.00,,,0.03,Wunderground v.1.15,2013-11-21 13:55:00,
2013-11-21 07:58:00,54.4,52.7,30.01,ENE,61,0.0,0.0,94,0.00,,---,0.03,VWS V14.01,2013-11-21 13:58:00,
2013-11-21 08:00:00,54.4,52.7,30.01,ENE,61,0.0,0.0,94,0.00,,,0.03,Wunderground v.1.15,2013-11-21 14:00:00,
2013-11-21 08:03:00,54.4,52.7,30.01,ENE,61,0.0,0.0,94,0.00,,---,0.03,VWS V14.01,2013-11-21 14:03:00,
2013-11-21 08:05:00,54.4,52.7,30.01,ENE,61,0.0,0.0,94,0.00,,,0.03,Wunderground v.1.15,2013-11-21 14:05:00,
2013-11-21 08:08:00,54.2,52.5,30.02,ENE,61,0.0,0.0,94,0.00,,---,0.03,VWS V14.01,2013-11-21 14:08:00,
2013-11-21 08:10:00,54.2,52.5,30.01,ENE,61,0.0,0.0,94,0.00,,,0.03,Wunderground v.1.15,2013-11-21 14:10:00,
2013-11-21 08:13:00,54.2,52.5,30.02,ENE,61,0.0,0.0,94,0.00,,---,0.03,VWS V14.01,2013-11-21 14:13:00,
2013-11-21 08:15:00,54.2,52.5,30.02,ENE,61,0.0,0.0,94,0.00,,,0.03,Wunderground v.1.15,2013-11-21 14:15:00,
2013-11-21 08:18:00,54.4,52.7,30.02,ENE,61,0.0,0.0,94,0.00,,---,0.03,VWS V14.01,2013-11-21 14:18:00,
2013-11-21 08:20:00,54.4,52.7,30.02,ENE,61,0.0,0.0,94,0.00,,,0.03,Wunderground v.1.15,2013-11-21 14:20:00,
2013-11-21 08:23:00,54.4,52.7,30.02,ENE,61,0.0,0.0,94,0.00,,---,0.03,VWS V14.01,2013-11-21 14:23:00,
2013-11-21 08:25:00,54.4,52.7,30.02,ENE,61,0.0,0.0,94,0.00,,,0.03,Wunderground v.1.15,2013-11-21 14:25:00,
2013-11-21 08:29:00,54.4,52.7,30.02,ENE,61,0.0,0.0,94,0.00,,---,0.03,VWS V14.01,2013-11-21 14:29:00,
2013-11-21 08:34:00,54.5,52.5,30.02,ENE,61,0.0,0.0,93,0.00,,---,0.03,VWS V14.01,2013-11-21 14:34:00,
2013-11-21 08:35:00,54.5,52.5,30.02,ENE,61,0.0,0.0,93,0.00,,,0.03,Wunderground v.1.15,2013-11-21 14:35:00,
2013-11-21 08:40:00,54.5,52.5,30.02,ENE,61,0.0,0.0,93,0.00,,---,0.03,VWS V14.01,2013-11-21 14:40:00,
2013-11-21 08:45:00,54.5,52.5,30.02,ENE,61,0.0,0.0,93,0.01,,---,0.04,VWS V14.01,2013-11-21 14:45:00,
2013-11-21 08:50:00,54.7,52.7,30.02,ENE,61,0.0,0.0,93,0.03,,---,0.06,VWS V14.01,2013-11-21 14:50:00,
2013-11-21 08:55:00,54.8,52.8,30.02,ENE,61,0.0,0.0,93,0.03,,---,0.06,VWS V14.01,2013-11-21 14:55:00,
2013-11-21 09:00:00,54.8,52.8,30.02,ENE,61,0.0,0.0,93,0.03,,---,0.06,VWS V14.01,2013-11-21 15:00:00,
2013-11-21 09:05:00,55.0,53.0,30.03,ENE,61,0.0,0.0,93,0.04,,,0.06,Wunderground v.1.15,2013-11-21 15:05:00,
2013-11-21 09:10:00,55.1,53.1,30.03,ENE,61,0.0,0.0,93,0.00,,,0.06,Wunderground v.1.15,2013-11-21 15:10:00,
2013-11-21 09:15:00,55.1,53.1,30.03,ENE,61,0.0,0.0,93,0.03,,---,0.06,VWS V14.01,2013-11-21 15:15:00,
2013-11-21 09:20:00,55.3,53.3,30.03,ENE,61,0.0,0.0,93,0.00,,,0.06,Wunderground v.1.15,2013-11-21 15:20:00,
2013-11-21 09:25:00,55.3,53.3,30.03,ENE,61,0.0,0.0,93,0.00,,,0.06,Wunderground v.1.15,2013-11-21 15:25:00,
2013-11-21 09:26:00,55.3,53.3,30.03,ENE,61,0.0,0.0,93,0.03,,---,0.06,VWS V14.01,2013-11-21 15:26:00,
2013-11-21 09:30:00,55.3,53.3,30.03,ENE,61,0.0,0.0,93,0.00,,,0.06,Wunderground v.1.15,2013-11-21 15:30:00,
2013-11-21 09:31:00,55.3,53.3,30.03,ENE,61,0.0,0.0,93,0.03,,---,0.06,VWS V14.01,2013-11-21 15:31:00,
2013-11-21 09:35:00,55.4,53.7,30.04,ENE,61,0.0,0.0,94,0.00,,,0.06,Wunderground v.1.15,2013-11-21 15:35:00,
2013-11-21 09:36:00,55.6,53.9,30.04,ENE,61,0.0,0.0,94,0.03,,---,0.06,VWS V14.01,2013-11-21 15:36:00,
2013-11-21 09:40:00,55.6,53.9,30.04,ENE,61,0.0,0.0,94,0.00,,,0.06,Wunderground v.1.15,2013-11-21 15:40:00,
2013-11-21 09:41:00,55.6,53.9,30.04,ENE,61,0.0,0.0,94,0.03,,---,0.06,VWS V14.01,2013-11-21 15:41:00,
2013-11-21 09:45:00,55.7,54.0,30.04,ENE,61,0.0,0.0,94,0.00,,,0.06,Wunderground v.1.15,2013-11-21 15:45:00,
2013-11-21 09:46:00,55.7,54.0,30.04,ENE,61,0.0,0.0,94,0.03,,---,0.06,VWS V14.01,2013-11-21 15:46:00,
2013-11-21 09:50:00,55.7,54.0,30.04,ENE,61,0.0,0.0,94,0.00,,,0.06,Wunderground v.1.15,2013-11-21 15:50:00,
2013-11-21 09:51:00,55.7,54.0,30.04,ENE,61,0.0,0.0,94,0.00,,---,0.06,VWS V14.01,2013-11-21 15:51:00,
2013-11-21 09:55:00,55.9,54.2,30.05,ENE,61,0.0,0.0,94,0.00,,,0.06,Wunderground v.1.15,2013-11-21 15:55:00,
2013-11-21 09:56:00,55.9,54.2,30.05,ENE,61,0.0,0.0,94,0.00,,---,0.06,VWS V14.01,2013-11-21 15:56:00,
2013-11-21 10:00:00,55.9,54.2,30.04,ENE,61,0.0,0.0,94,0.00,,,0.06,Wunderground v.1.15,2013-11-21 16:00:00,
2013-11-21 10:01:00,56.0,54.3,30.04,ENE,61,0.0,0.0,94,0.00,,---,0.06,VWS V14.01,2013-11-21 16:01:00,
2013-11-21 10:05:00,56.2,54.8,30.05,ENE,61,0.0,0.0,95,0.00,,,0.06,Wunderground v.1.15,2013-11-21 16:05:00,
2013-11-21 10:06:00,56.2,54.8,30.05,ENE,61,0.0,0.0,95,0.00,,---,0.06,VWS V14.01,2013-11-21 16:06:00,
2013-11-21 10:10:00,56.3,54.9,30.05,ENE,61,0.0,0.0,95,0.00,,,0.06,Wunderground v.1.15,2013-11-21 16:10:00,
2013-11-21 10:12:00,56.3,54.9,30.04,ENE,63,0.0,0.0,95,0.00,,---,0.06,VWS V14.01,2013-11-21 16:12:00,
2013-11-21 10:15:00,56.3,54.6,30.05,ENE,61,0.0,0.0,94,0.00,,,0.06,Wunderground v.1.15,2013-11-21 16:15:00,
2013-11-21 10:17:00,56.3,54.6,30.04,ENE,61,0.0,0.0,94,0.00,,---,0.06,VWS V14.01,2013-11-21 16:17:00,
2013-11-21 10:20:00,56.5,54.8,30.04,ENE,60,0.0,0.0,94,0.00,,,0.06,Wunderground v.1.15,2013-11-21 16:20:00,
2013-11-21 10:22:00,56.5,54.8,30.04,ENE,60,0.0,0.0,94,0.00,,---,0.06,VWS V14.01,2013-11-21 16:22:00,
2013-11-21 10:25:00,56.6,54.9,30.04,ENE,60,0.0,0.0,94,0.00,,,0.06,Wunderground v.1.15,2013-11-21 16:25:00,
2013-11-21 10:27:00,56.6,54.9,30.04,ENE,60,0.0,0.0,94,0.00,,---,0.06,VWS V14.01,2013-11-21 16:27:00,
2013-11-21 10:30:00,56.7,55.0,30.04,ENE,60,0.0,0.0,94,0.00,,,0.06,Wunderground v.1.15,2013-11-21 16:30:00,
2013-11-21 10:32:00,56.9,55.2,30.04,ENE,60,0.0,0.0,94,0.00,,---,0.06,VWS V14.01,2013-11-21 16:32:00,
2013-11-21 10:35:00,56.9,55.2,30.04,ENE,60,0.0,0.0,94,0.00,,,0.06,Wunderground v.1.15,2013-11-21 16:35:00,
2013-11-21 10:37:00,56.9,55.2,30.04,ENE,60,0.0,0.0,94,0.00,,---,0.06,VWS V14.01,2013-11-21 16:37:00,
2013-11-21 10:40:00,57.0,55.6,30.04,ENE,60,0.0,0.0,95,0.00,,,0.06,Wunderground v.1.15,2013-11-21 16:40:00,
2013-11-21 10:42:00,57.0,55.6,30.04,ENE,60,0.0,0.0,95,0.00,,---,0.06,VWS V14.01,2013-11-21 16:42:00,
2013-11-21 10:45:00,57.0,55.3,30.04,ENE,60,0.0,0.0,94,0.00,,,0.06,Wunderground v.1.15,2013-11-21 16:45:00,
2013-11-21 10:47:00,56.9,55.2,30.04,ENE,59,0.0,0.0,94,0.00,,---,0.06,VWS V14.01,2013-11-21 16:47:00,
2013-11-21 10:50:00,56.9,55.2,30.04,ENE,59,0.0,0.0,94,0.00,,,0.06,Wunderground v.1.15,2013-11-21 16:50:00,
2013-11-21 10:52:00,56.7,54.7,30.04,ENE,59,0.0,0.0,93,0.00,,---,0.06,VWS V14.01,2013-11-21 16:52:00,
2013-11-21 10:55:00,56.7,55.0,30.04,ENE,59,0.0,0.0,94,0.00,,,0.06,Wunderground v.1.15,2013-11-21 16:55:00,
2013-11-21 10:58:00,56.9,54.9,30.04,ENE,59,0.0,0.0,93,0.00,,---,0.06,VWS V14.01,2013-11-21 16:58:00,
2013-11-21 11:00:00,56.9,54.9,30.04,ENE,59,0.0,0.0,93,0.00,,,0.06,Wunderground v.1.15,2013-11-21 17:00:00,
2013-11-21 11:03:00,56.9,54.9,30.04,ENE,59,0.0,0.0,93,0.00,,---,0.06,VWS V14.01,2013-11-21 17:03:00,
2013-11-21 11:05:00,56.9,54.9,30.04,ENE,59,0.0,2.0,93,0.00,,,0.06,Wunderground v.1.15,2013-11-21 17:05:00,
2013-11-21 11:08:00,57.0,55.0,30.03,ENE,57,3.0,5.0,93,0.00,,---,0.06,VWS V14.01,2013-11-21 17:08:00,
2013-11-21 11:10:00,57.0,55.0,30.03,ENE,57,1.0,1.0,93,0.00,,,0.06,Wunderground v.1.15,2013-11-21 17:10:00,
2013-11-21 11:13:00,57.3,55.3,30.03,ENE,57,0.0,3.0,93,0.00,,---,0.06,VWS V14.01,2013-11-21 17:13:00,
2013-11-21 11:15:00,57.5,55.5,30.03,NE,56,2.0,5.0,93,0.00,,,0.06,Wunderground v.1.15,2013-11-21 17:15:00,
2013-11-21 11:18:00,57.5,55.2,30.03,NE,56,2.0,6.0,92,0.00,,---,0.06,VWS V14.01,2013-11-21 17:18:00,
2013-11-21 11:20:00,57.6,55.6,30.03,ENE,60,2.0,3.0,93,0.00,,,0.06,Wunderground v.1.15,2013-11-21 17:20:00,
2013-11-21 11:23:00,57.6,55.3,30.03,NE,56,1.0,5.0,92,0.00,,---,0.06,VWS V14.01,2013-11-21 17:23:00,
2013-11-21 11:25:00,57.6,55.3,30.03,NE,56,3.0,3.0,92,0.00,,,0.06,Wunderground v.1.15,2013-11-21 17:25:00,
2013-11-21 11:29:00,57.6,55.3,30.03,NE,56,1.0,5.0,92,0.00,,---,0.06,VWS V14.01,2013-11-21 17:29:00,
2013-11-21 11:30:00,57.6,55.3,30.03,NE,56,2.0,2.0,92,0.00,,,0.06,Wunderground v.1.15,2013-11-21 17:30:00,
2013-11-21 11:34:00,58.0,55.7,30.02,NE,56,2.0,3.0,92,0.00,,---,0.06,VWS V14.01,2013-11-21 17:34:00,
2013-11-21 11:35:00,58.0,55.7,30.02,NE,56,1.0,5.0,92,0.00,,,0.06,Wunderground v.1.15,2013-11-21 17:35:00,
2013-11-21 11:39:00,57.8,55.5,30.02,NE,56,3.0,7.0,92,0.00,,---,0.06,VWS V14.01,2013-11-21 17:39:00,
2013-11-21 11:40:00,57.8,55.5,30.02,NE,56,3.0,3.0,92,0.00,,,0.06,Wunderground v.1.15,2013-11-21 17:40:00,
2013-11-21 11:44:00,57.8,55.2,30.02,NE,54,0.0,5.0,91,0.00,,---,0.06,VWS V14.01,2013-11-21 17:44:00,
2013-11-21 11:45:00,57.6,55.0,30.02,NE,54,2.0,3.0,91,0.00,,,0.06,Wunderground v.1.15,2013-11-21 17:45:00,
2013-11-21 11:50:00,57.8,55.2,30.02,NE,54,0.0,5.0,91,0.00,,---,0.06,VWS V14.01,2013-11-21 17:50:00,
2013-11-21 11:55:00,58.0,55.7,30.02,NE,56,0.0,0.0,92,0.00,,---,0.06,VWS V14.01,2013-11-21 17:55:00,
2013-11-21 12:00:00,58.3,56.0,30.02,NE,56,0.0,0.0,92,0.00,,,0.06,Wunderground v.1.15,2013-11-21 18:00:00,
2013-11-21 12:05:00,58.4,55.8,30.01,NE,56,0.0,0.0,91,0.00,,---,0.06,VWS V14.01,2013-11-21 18:05:00,
2013-11-21 12:10:00,59.0,56.7,30.01,NE,56,0.0,1.0,92,0.00,,,0.06,Wunderground v.1.15,2013-11-21 18:10:00,
2013-11-21 12:15:00,59.0,56.1,30.01,NE,56,2.0,2.0,90,0.00,,,0.06,Wunderground v.1.15,2013-11-21 18:15:00,
2013-11-21 12:20:00,59.2,56.3,30.01,NE,56,2.0,2.0,90,0.00,,,0.06,Wunderground v.1.15,2013-11-21 18:20:00,
2013-11-21 12:25:00,59.5,56.9,30.01,NE,56,1.0,2.0,91,0.00,,---,0.06,VWS V14.01,2013-11-21 18:25:00,
2013-11-21 12:30:00,59.8,56.6,30.00,NE,56,1.0,2.0,89,0.00,,,0.06,Wunderground v.1.15,2013-11-21 18:30:00,
2013-11-21 12:35:00,59.6,56.7,30.00,NE,54,2.0,2.0,90,0.00,,,0.06,Wunderground v.1.15,2013-11-21 18:35:00,
2013-11-21 12:40:00,59.6,56.4,30.00,NE,54,3.0,3.0,89,0.00,,,0.06,Wunderground v.1.15,2013-11-21 18:40:00,
2013-11-21 12:45:00,59.6,56.4,30.00,NE,54,3.0,3.0,89,0.00,,,0.06,Wunderground v.1.15,2013-11-21 18:45:00,
2013-11-21 12:50:00,59.9,57.0,29.99,ENE,61,1.0,5.0,90,0.00,,,0.06,Wunderground v.1.15,2013-11-21 18:50:00,
2013-11-21 12:55:00,60.2,57.3,29.99,ENE,61,2.0,5.0,90,0.00,,,0.06,Wunderground v.1.15,2013-11-21 18:55:00,
2013-11-21 12:56:00,60.2,57.3,29.99,ENE,61,3.0,6.0,90,0.00,,---,0.06,VWS V14.01,2013-11-21 18:56:00,
2013-11-21 13:00:00,60.4,57.1,29.99,ENE,64,3.0,3.0,89,0.00,,,0.06,Wunderground v.1.15,2013-11-21 19:00:00,
2013-11-21 13:01:00,60.4,57.2,29.99,ENE,64,3.0,5.0,89,0.00,,---,0.06,VWS V14.01,2013-11-21 19:01:00,
2013-11-21 13:06:00,61.0,57.7,29.99,NE,56,2.0,6.0,89,0.00,,---,0.06,VWS V14.01,2013-11-21 19:06:00,
2013-11-21 13:10:00,61.3,57.7,29.99,ENE,59,2.0,3.0,88,0.00,,,0.06,Wunderground v.1.15,2013-11-21 19:10:00,
2013-11-21 13:11:00,61.3,57.7,29.98,ENE,63,5.0,6.0,88,0.00,,---,0.06,VWS V14.01,2013-11-21 19:11:00,
2013-11-21 13:15:00,61.5,57.9,29.98,NE,54,3.0,3.0,88,0.00,,,0.06,Wunderground v.1.15,2013-11-21 19:15:00,
2013-11-21 13:16:00,61.5,57.9,29.99,NE,54,3.0,6.0,88,0.00,,---,0.06,VWS V14.01,2013-11-21 19:16:00,
2013-11-21 13:20:00,61.8,58.2,29.99,ENE,59,3.0,3.0,88,0.00,,,0.06,Wunderground v.1.15,2013-11-21 19:20:00,
2013-11-21 13:21:00,61.8,58.2,29.99,ENE,59,0.0,1.0,88,0.00,,---,0.06,VWS V14.01,2013-11-21 19:21:00,
2013-11-21 13:25:00,61.8,57.9,29.99,ENE,59,1.0,3.0,87,0.00,,,0.06,Wunderground v.1.15,2013-11-21 19:25:00,
2013-11-21 13:26:00,61.8,58.2,29.99,ENE,59,0.0,3.0,88,0.00,,---,0.06,VWS V14.01,2013-11-21 19:26:00,
2013-11-21 13:30:00,62.0,58.4,29.98,ENE,67,1.0,6.0,88,0.00,,,0.06,Wunderground v.1.15,2013-11-21 19:30:00,
2013-11-21 13:31:00,62.1,58.5,29.98,ENE,66,2.0,6.0,88,0.00,,---,0.06,VWS V14.01,2013-11-21 19:31:00,
2013-11-21 13:35:00,62.1,58.2,29.98,ENE,66,2.0,6.0,87,0.00,,,0.06,Wunderground v.1.15,2013-11-21 19:35:00,
2013-11-21 13:36:00,62.3,58.4,29.98,ENE,66,1.0,6.0,87,0.00,,---,0.06,VWS V14.01,2013-11-21 19:36:00,
2013-11-21 13:40:00,62.4,58.5,29.98,ENE,66,2.0,2.0,87,0.00,,,0.06,Wunderground v.1.15,2013-11-21 19:40:00,
2013-11-21 13:41:00,62.4,58.5,29.98,NE,53,6.0,6.0,87,0.00,,---,0.06,VWS V14.01,2013-11-21 19:41:00,
2013-11-21 13:45:00,62.3,58.4,29.97,NE,56,3.0,3.0,87,0.00,,,0.06,Wunderground v.1.15,2013-11-21 19:45:00,
2013-11-21 13:46:00,62.3,58.4,29.97,NE,56,0.0,6.0,87,0.00,,---,0.06,VWS V14.01,2013-11-21 19:46:00,
2013-11-21 13:50:00,62.3,58.4,29.97,ENE,60,3.0,3.0,87,0.00,,,0.06,Wunderground v.1.15,2013-11-21 19:50:00,
2013-11-21 13:51:00,62.3,58.4,29.97,ENE,61,3.0,5.0,87,0.00,,---,0.06,VWS V14.01,2013-11-21 19:51:00,
2013-11-21 13:56:00,62.4,58.5,29.97,NE,54,2.0,6.0,87,0.00,,---,0.06,VWS V14.01,2013-11-21 19:56:00,
2013-11-21 14:00:00,62.4,58.5,29.97,NE,54,3.0,3.0,87,0.00,,,0.06,Wunderground v.1.15,2013-11-21 20:00:00,
2013-11-21 14:01:00,62.6,58.7,29.97,NE,53,5.0,5.0,87,0.00,,---,0.06,VWS V14.01,2013-11-21 20:01:00,
2013-11-21 14:06:00,62.6,58.7,29.97,NE,53,1.0,5.0,87,0.00,,---,0.06,VWS V14.01,2013-11-21 20:06:00,
2013-11-21 14:10:00,62.6,59.0,29.97,NE,53,2.0,2.0,88,0.00,,,0.06,Wunderground v.1.15,2013-11-21 20:10:00,
2013-11-21 14:11:00,62.7,59.1,29.97,NE,53,2.0,3.0,88,0.00,,---,0.06,VWS V14.01,2013-11-21 20:11:00,
2013-11-21 14:15:00,62.7,59.1,29.97,NE,54,1.0,2.0,88,0.00,,,0.06,Wunderground v.1.15,2013-11-21 20:15:00,
2013-11-21 14:17:00,62.9,59.3,29.97,NE,54,0.0,3.0,88,0.00,,---,0.06,VWS V14.01,2013-11-21 20:17:00,
2013-11-21 14:20:00,62.9,59.3,29.97,NE,54,0.0,0.0,88,0.00,,,0.06,Wunderground v.1.15,2013-11-21 20:20:00,
2013-11-21 14:23:00,63.1,59.2,29.97,ENE,60,0.0,0.0,87,0.00,,---,0.06,VWS V14.01,2013-11-21 20:23:00,
2013-11-21 14:25:00,63.1,59.2,29.97,NE,56,1.0,3.0,87,0.00,,,0.06,Wunderground v.1.15,2013-11-21 20:25:00,
2013-11-21 14:28:00,63.1,59.2,29.97,ENE,59,5.0,5.0,87,0.00,,---,0.06,VWS V14.01,2013-11-21 20:28:00,
2013-11-21 14:30:00,63.1,59.2,29.97,ENE,59,2.0,5.0,87,0.00,,,0.06,Wunderground v.1.15,2013-11-21 20:30:00,
2013-11-21 14:33:00,62.9,59.0,29.97,ENE,61,1.0,5.0,87,0.00,,---,0.06,VWS V14.01,2013-11-21 20:33:00,
2013-11-21 14:35:00,62.9,59.0,29.97,ENE,60,3.0,5.0,87,0.00,,,0.06,Wunderground v.1.15,2013-11-21 20:35:00,
2013-11-21 14:38:00,63.1,59.2,29.97,NE,56,1.0,5.0,87,0.00,,---,0.06,VWS V14.01,2013-11-21 20:38:00,
2013-11-21 14:40:00,63.2,59.3,29.97,NE,56,3.0,3.0,87,0.00,,,0.06,Wunderground v.1.15,2013-11-21 20:40:00,
2013-11-21 14:43:00,63.2,59.3,29.97,NE,54,2.0,5.0,87,0.00,,---,0.06,VWS V14.01,2013-11-21 20:43:00,
2013-11-21 14:48:00,63.2,59.6,29.97,NE,54,2.0,5.0,88,0.00,,---,0.06,VWS V14.01,2013-11-21 20:48:00,
2013-11-21 14:50:00,63.4,59.8,29.98,NE,56,2.0,3.0,88,0.00,,,0.06,Wunderground v.1.15,2013-11-21 20:50:00,
2013-11-21 14:53:00,63.4,59.8,29.98,ENE,57,3.0,3.0,88,0.00,,---,0.06,VWS V14.01,2013-11-21 20:53:00,
2013-11-21 14:55:00,63.5,59.9,29.98,NE,53,2.0,3.0,88,0.00,,,0.06,Wunderground v.1.15,2013-11-21 20:55:00,
2013-11-21 14:59:00,63.5,59.6,29.98,NE,53,3.0,6.0,87,0.00,,---,0.06,VWS V14.01,2013-11-21 20:59:00,
2013-11-21 15:00:00,63.5,59.6,29.98,NE,53,3.0,3.0,87,0.00,,,0.06,Wunderground v.1.15,2013-11-21 21:00:00,
2013-11-21 15:04:00,63.5,59.6,29.98,NE,53,3.0,3.0,87,0.00,,---,0.06,VWS V14.01,2013-11-21 21:04:00,
2013-11-21 15:05:00,63.4,59.5,29.98,NE,53,3.0,5.0,87,0.00,,,0.06,Wunderground v.1.15,2013-11-21 21:05:00,
2013-11-21 15:09:00,63.4,59.5,29.98,NE,51,2.0,6.0,87,0.00,,---,0.06,VWS V14.01,2013-11-21 21:09:00,
2013-11-21 15:14:00,63.2,59.6,29.98,NE,51,3.0,6.0,88,0.00,,---,0.06,VWS V14.01,2013-11-21 21:14:00,
2013-11-21 15:15:00,63.2,59.6,29.98,NE,51,3.0,3.0,88,0.00,,,0.06,Wunderground v.1.15,2013-11-21 21:15:00,
2013-11-21 15:19:00,63.2,59.9,29.98,NE,49,7.0,7.0,89,0.00,,---,0.06,VWS V14.01,2013-11-21 21:19:00,
2013-11-21 15:20:00,63.2,59.9,29.98,NE,49,4.0,5.0,89,0.00,,,0.06,Wunderground v.1.15,2013-11-21 21:20:00,
2013-11-21 15:24:00,63.2,59.6,29.98,NE,54,5.0,6.0,88,0.00,,---,0.06,VWS V14.01,2013-11-21 21:24:00,
2013-11-21 15:25:00,63.2,59.6,29.99,NE,53,4.0,5.0,88,0.00,,,0.06,Wunderground v.1.15,2013-11-21 21:25:00,
2013-11-21 15:29:00,63.1,59.5,29.98,NE,53,0.0,6.0,88,0.00,,---,0.06,VWS V14.01,2013-11-21 21:29:00,
2013-11-21 15:34:00,63.1,59.5,29.99,ENE,64,2.0,5.0,88,0.00,,---,0.06,VWS V14.01,2013-11-21 21:34:00,
2013-11-21 15:35:00,63.1,59.5,29.98,ENE,64,2.0,5.0,88,0.00,,,0.06,Wunderground v.1.15,2013-11-21 21:35:00,
2013-11-21 15:39:00,63.1,59.8,29.98,NE,49,3.0,6.0,89,0.00,,---,0.06,VWS V14.01,2013-11-21 21:39:00,
2013-11-21 15:40:00,63.1,59.8,29.98,NE,44,3.0,6.0,89,0.00,,,0.06,Wunderground v.1.15,2013-11-21 21:40:00,
2013-11-21 15:44:00,62.9,59.6,29.98,North,11,5.0,8.0,89,0.00,,---,0.06,VWS V14.01,2013-11-21 21:44:00,
2013-11-21 15:45:00,62.9,59.6,29.98,NNE,12,4.0,6.0,89,0.00,,,0.06,Wunderground v.1.15,2013-11-21 21:45:00,
2013-11-21 15:50:00,62.9,59.3,29.99,NNE,25,2.0,2.0,88,0.00,,---,0.06,VWS V14.01,2013-11-21 21:50:00,
2013-11-21 15:55:00,62.7,59.4,29.99,North,11,6.0,6.0,89,0.00,,---,0.06,VWS V14.01,2013-11-21 21:55:00,
2013-11-21 16:00:00,62.6,59.6,29.99,NE,36,2.0,2.0,90,0.00,,---,0.06,VWS V14.01,2013-11-21 22:00:00,
2013-11-21 16:05:00,62.6,59.6,29.99,NNE,25,1.0,5.0,90,0.00,,---,0.06,VWS V14.01,2013-11-21 22:05:00,
2013-11-21 16:10:00,62.3,59.3,29.99,NNE,30,4.0,4.0,90,0.00,,,0.06,Wunderground v.1.15,2013-11-21 22:10:00,
2013-11-21 16:15:00,62.3,59.3,30.00,ENE,66,3.0,5.0,90,0.00,,,0.06,Wunderground v.1.15,2013-11-21 22:15:00,
2013-11-21 16:20:00,62.3,59.3,29.99,NE,35,3.0,3.0,90,0.00,,,0.06,Wunderground v.1.15,2013-11-21 22:20:00,
2013-11-21 16:21:00,62.3,59.3,29.99,NE,35,3.0,3.0,90,0.00,,---,0.06,VWS V14.01,2013-11-21 22:21:00,
2013-11-21 16:25:00,62.3,59.3,30.00,NNE,33,3.0,3.0,90,0.00,,,0.06,Wunderground v.1.15,2013-11-21 22:25:00,
2013-11-21 16:26:00,62.3,59.3,30.00,NNE,18,2.0,5.0,90,0.00,,---,0.06,VWS V14.01,2013-11-21 22:26:00,
2013-11-21 16:30:00,62.1,59.1,30.00,NNE,20,2.0,3.0,90,0.00,,,0.06,Wunderground v.1.15,2013-11-21 22:30:00,
2013-11-21 16:31:00,62.1,59.1,30.00,NNE,19,3.0,5.0,90,0.00,,---,0.06,VWS V14.01,2013-11-21 22:31:00,
2013-11-21 16:35:00,62.0,59.3,30.00,NNE,18,2.0,3.0,91,0.00,,,0.06,Wunderground v.1.15,2013-11-21 22:35:00,
2013-11-21 16:36:00,62.0,59.3,30.00,NNE,19,3.0,5.0,91,0.00,,---,0.06,VWS V14.01,2013-11-21 22:36:00,
2013-11-21 16:40:00,62.0,59.3,30.00,NE,40,3.0,3.0,91,0.00,,,0.06,Wunderground v.1.15,2013-11-21 22:40:00,
2013-11-21 16:41:00,62.0,59.3,30.00,NE,40,0.0,3.0,91,0.00,,---,0.06,VWS V14.01,2013-11-21 22:41:00,
2013-11-21 16:45:00,61.8,59.1,30.00,NE,37,3.0,3.0,91,0.00,,,0.06,Wunderground v.1.15,2013-11-21 22:45:00,
2013-11-21 16:46:00,61.8,59.2,30.00,NE,37,2.0,6.0,91,0.00,,---,0.06,VWS V14.01,2013-11-21 22:46:00,
2013-11-21 16:51:00,61.8,59.2,30.00,NE,43,5.0,5.0,91,0.00,,---,0.06,VWS V14.01,2013-11-21 22:51:00,
2013-11-21 16:55:00,61.6,58.9,30.00,NE,39,3.0,5.0,91,0.00,,,0.06,Wunderground v.1.15,2013-11-21 22:55:00,
2013-11-21 16:56:00,61.6,59.0,30.00,NE,40,1.0,5.0,91,0.00,,---,0.06,VWS V14.01,2013-11-21 22:56:00,
2013-11-21 17:00:00,61.6,58.9,30.00,NE,35,3.0,5.0,91,0.00,,,0.06,Wunderground v.1.15,2013-11-21 23:00:00,
2013-11-21 17:02:00,61.6,59.0,30.01,North,354,6.0,7.0,91,0.00,,---,0.06,VWS V14.01,2013-11-21 23:02:00,
2013-11-21 17:05:00,61.5,59.2,30.00,North,356,3.0,5.0,92,0.00,,,0.06,Wunderground v.1.15,2013-11-21 23:05:00,
2013-11-21 17:08:00,61.5,59.2,30.00,North,359,2.0,7.0,92,0.00,,---,0.06,VWS V14.01,2013-11-21 23:08:00,
2013-11-21 17:10:00,61.5,59.2,30.00,NE,50,3.0,3.0,92,0.00,,,0.06,Wunderground v.1.15,2013-11-21 23:10:00,
2013-11-21 17:13:00,61.3,59.0,30.01,NE,50,2.0,3.0,92,0.00,,---,0.06,VWS V14.01,2013-11-21 23:13:00,
2013-11-21 17:15:00,61.3,59.0,30.01,NE,50,2.0,3.0,92,0.00,,,0.06,Wunderground v.1.15,2013-11-21 23:15:00,
2013-11-21 17:18:00,61.3,59.0,30.01,NE,37,2.0,6.0,92,0.00,,---,0.06,VWS V14.01,2013-11-21 23:18:00,
2013-11-21 17:20:00,61.3,59.0,30.01,NE,37,2.0,2.0,92,0.00,,,0.06,Wunderground v.1.15,2013-11-21 23:20:00,
2013-11-21 17:23:00,61.3,59.0,30.01,NE,36,2.0,3.0,92,0.00,,---,0.06,VWS V14.01,2013-11-21 23:23:00,
2013-11-21 17:25:00,61.3,59.0,30.01,NE,36,2.0,2.0,92,0.00,,,0.06,Wunderground v.1.15,2013-11-21 23:25:00,
2013-11-21 17:28:00,61.2,59.2,30.01,NNE,29,6.0,6.0,93,0.00,,---,0.06,VWS V14.01,2013-11-21 23:28:00,
2013-11-21 17:30:00,61.2,59.2,30.01,NE,39,3.0,3.0,93,0.00,,,0.06,Wunderground v.1.15,2013-11-21 23:30:00,
2013-11-21 17:33:00,61.2,59.2,30.01,NE,43,2.0,5.0,93,0.00,,---,0.06,VWS V14.01,2013-11-21 23:33:00,
2013-11-21 17:35:00,61.2,59.2,30.01,NE,43,3.0,3.0,93,0.00,,,0.06,Wunderground v.1.15,2013-11-21 23:35:00,
2013-11-21 17:38:00,61.2,59.2,30.01,NE,39,2.0,5.0,93,0.00,,---,0.06,VWS V14.01,2013-11-21 23:38:00,
2013-11-21 17:40:00,61.2,59.2,30.01,NE,39,3.0,3.0,93,0.00,,,0.06,Wunderground v.1.15,2013-11-21 23:40:00,
2013-11-21 17:44:00,61.2,59.2,30.01,NE,44,1.0,5.0,93,0.00,,---,0.06,VWS V14.01,2013-11-21 23:44:00,
2013-11-21 17:45:00,61.2,59.2,30.01,NE,44,2.0,3.0,93,0.00,,,0.06,Wunderground v.1.15,2013-11-21 23:45:00,
2013-11-21 17:50:00,61.0,59.0,30.01,NE,50,5.0,5.0,93,0.01,,---,0.07,VWS V14.01,2013-11-21 23:50:00,
2013-11-21 17:55:00,61.0,59.0,30.02,NE,50,2.0,5.0,93,0.01,,---,0.07,VWS V14.01,2013-11-21 23:55:00,
2013-11-21 18:00:00,61.0,59.6,30.02,NE,49,1.0,2.0,95,0.00,,,0.07,Wunderground v.1.15,2013-11-22 00:00:00,
2013-11-21 18:05:00,61.0,59.6,30.02,NE,49,0.0,3.0,95,0.01,,---,0.07,VWS V14.01,2013-11-22 00:05:00,
2013-11-21 18:10:00,61.0,59.6,30.02,NE,49,1.0,1.0,95,0.00,,,0.07,Wunderground v.1.15,2013-11-22 00:10:00,
2013-11-21 18:15:00,61.0,59.6,30.02,East,91,1.0,3.0,95,0.00,,,0.07,Wunderground v.1.15,2013-11-22 00:15:00,
2013-11-21 18:16:00,61.0,59.6,30.02,East,91,3.0,3.0,95,0.01,,---,0.07,VWS V14.01,2013-11-22 00:16:00,
2013-11-21 18:20:00,61.0,59.6,30.02,East,90,1.0,1.0,95,0.00,,,0.07,Wunderground v.1.15,2013-11-22 00:20:00,
2013-11-21 18:21:00,61.0,59.6,30.01,East,90,0.0,0.0,95,0.01,,---,0.07,VWS V14.01,2013-11-22 00:21:00,
2013-11-21 18:25:00,61.0,59.9,30.01,East,88,1.0,1.0,96,0.00,,,0.07,Wunderground v.1.15,2013-11-22 00:25:00,
2013-11-21 18:26:00,61.0,59.9,30.01,East,88,1.0,2.0,96,0.01,,---,0.07,VWS V14.01,2013-11-22 00:26:00,
2013-11-21 18:30:00,61.0,59.9,30.02,East,84,0.0,1.0,96,0.00,,,0.07,Wunderground v.1.15,2013-11-22 00:30:00,
2013-11-21 18:31:00,61.0,59.9,30.02,East,84,0.0,1.0,96,0.01,,---,0.07,VWS V14.01,2013-11-22 00:31:00,
2013-11-21 18:35:00,61.2,60.1,30.02,East,84,0.0,1.0,96,0.00,,,0.07,Wunderground v.1.15,2013-11-22 00:35:00,
2013-11-21 18:36:00,61.2,60.0,30.02,East,84,0.0,2.0,96,0.01,,---,0.07,VWS V14.01,2013-11-22 00:36:00,
2013-11-21 18:40:00,61.2,60.1,30.02,East,84,0.0,0.0,96,0.00,,,0.07,Wunderground v.1.15,2013-11-22 00:40:00,
2013-11-21 18:42:00,61.2,60.0,30.02,East,84,1.0,1.0,96,0.01,,---,0.07,VWS V14.01,2013-11-22 00:42:00,
2013-11-21 18:45:00,61.2,60.1,30.02,East,84,0.0,0.0,96,0.00,,,0.07,Wunderground v.1.15,2013-11-22 00:45:00,
2013-11-21 18:48:00,61.3,60.2,30.02,East,84,1.0,2.0,96,0.01,,---,0.07,VWS V14.01,2013-11-22 00:48:00,
2013-11-21 18:50:00,61.3,60.2,30.02,East,84,0.0,0.0,96,0.00,,,0.07,Wunderground v.1.15,2013-11-22 00:50:00,
2013-11-21 18:53:00,61.5,60.3,30.03,East,84,0.0,0.0,96,0.00,,---,0.07,VWS V14.01,2013-11-22 00:53:00,
2013-11-21 18:55:00,61.5,60.3,30.03,East,84,0.0,0.0,96,0.00,,,0.07,Wunderground v.1.15,2013-11-22 00:55:00,
2013-11-21 18:58:00,61.6,60.5,30.03,East,84,0.0,3.0,96,0.00,,---,0.07,VWS V14.01,2013-11-22 00:58:00,
2013-11-21 19:00:00,61.6,60.4,30.03,East,84,0.0,0.0,96,0.00,,,0.07,Wunderground v.1.15,2013-11-22 01:00:00,
2013-11-21 19:03:00,61.6,60.5,30.03,East,84,0.0,0.0,96,0.00,,---,0.07,VWS V14.01,2013-11-22 01:03:00,
2013-11-21 19:05:00,61.6,60.4,30.03,East,80,0.0,0.0,96,0.00,,,0.07,Wunderground v.1.15,2013-11-22 01:05:00,
2013-11-21 19:09:00,61.8,60.7,30.03,East,80,0.0,1.0,96,0.00,,---,0.07,VWS V14.01,2013-11-22 01:09:00,
2013-11-21 19:10:00,61.8,60.6,30.03,East,80,0.0,0.0,96,0.00,,,0.07,Wunderground v.1.15,2013-11-22 01:10:00,
2013-11-21 19:14:00,61.8,60.7,30.03,East,80,0.0,1.0,96,0.00,,---,0.07,VWS V14.01,2013-11-22 01:14:00,
2013-11-21 19:15:00,61.8,60.6,30.03,East,80,0.0,0.0,96,0.00,,,0.07,Wunderground v.1.15,2013-11-22 01:15:00,
2013-11-21 19:19:00,61.8,60.7,30.03,East,80,0.0,1.0,96,0.00,,---,0.07,VWS V14.01,2013-11-22 01:19:00,
2013-11-21 19:20:00,61.8,60.6,30.03,East,80,0.0,0.0,96,0.00,,,0.07,Wunderground v.1.15,2013-11-22 01:20:00,
2013-11-21 19:24:00,61.8,60.7,30.03,ENE,78,0.0,1.0,96,0.00,,---,0.07,VWS V14.01,2013-11-22 01:24:00,
2013-11-21 19:29:00,61.8,60.7,30.03,East,80,0.0,1.0,96,0.00,,---,0.07,VWS V14.01,2013-11-22 01:29:00,
2013-11-21 19:30:00,61.8,60.6,30.03,ENE,78,0.0,0.0,96,0.00,,,0.07,Wunderground v.1.15,2013-11-22 01:30:00,
2013-11-21 19:34:00,61.8,60.7,30.03,ENE,75,2.0,3.0,96,0.00,,---,0.07,VWS V14.01,2013-11-22 01:34:00,
2013-11-21 19:35:00,61.8,60.6,30.03,ENE,75,1.0,1.0,96,0.00,,,0.07,Wunderground v.1.15,2013-11-22 01:35:00,
2013-11-21 19:39:00,61.6,60.5,30.03,ENE,75,1.0,3.0,96,0.00,,---,0.07,VWS V14.01,2013-11-22 01:39:00,
2013-11-21 19:40:00,61.6,60.4,30.03,ENE,75,1.0,1.0,96,0.00,,,0.07,Wunderground v.1.15,2013-11-22 01:40:00,
2013-11-21 19:44:00,61.6,60.5,30.03,ENE,75,0.0,0.0,96,0.00,,---,0.07,VWS V14.01,2013-11-22 01:44:00,
2013-11-21 19:45:00,61.6,60.4,30.03,ENE,75,0.0,1.0,96,0.00,,,0.07,Wunderground v.1.15,2013-11-22 01:45:00,
2013-11-21 19:49:00,61.6,60.5,30.03,ENE,75,0.0,0.0,96,0.00,,---,0.07,VWS V14.01,2013-11-22 01:49:00,
2013-11-21 19:50:00,61.5,60.3,30.03,ENE,75,0.0,0.0,96,0.00,,,0.07,Wunderground v.1.15,2013-11-22 01:50:00,
2013-11-21 19:54:00,61.5,60.3,30.03,ENE,75,0.0,0.0,96,0.00,,---,0.07,VWS V14.01,2013-11-22 01:54:00,
2013-11-21 19:55:00,61.5,60.3,30.03,ENE,75,0.0,0.0,96,0.00,,,0.07,Wunderground v.1.15,2013-11-22 01:55:00,
2013-11-21 19:59:00,61.3,60.2,30.04,ENE,75,0.0,0.0,96,0.00,,---,0.07,VWS V14.01,2013-11-22 01:59:00,
2013-11-21 20:00:00,61.3,60.2,30.04,ENE,75,0.0,1.0,96,0.00,,,0.07,Wunderground v.1.15,2013-11-22 02:00:00,
2013-11-21 20:04:00,61.3,60.2,30.03,ENE,75,2.0,2.0,96,0.01,,---,0.08,VWS V14.01,2013-11-22 02:04:00,
2013-11-21 20:05:00,61.3,60.2,30.03,ENE,68,1.0,1.0,96,0.00,,,0.08,Wunderground v.1.15,2013-11-22 02:05:00,
2013-11-21 20:08:00,61.3,60.2,30.03,ENE,68,0.0,2.0,96,0.01,,---,0.08,VWS V14.01,2013-11-22 02:08:00,
2013-11-21 20:10:00,61.3,60.2,30.03,ENE,68,0.0,0.0,96,0.00,,,0.08,Wunderground v.1.15,2013-11-22 02:10:00,
2013-11-21 20:13:00,61.2,60.0,30.03,ENE,68,1.0,1.0,96,0.01,,---,0.08,VWS V14.01,2013-11-22 02:13:00,
2013-11-21 20:15:00,61.2,60.1,30.03,ENE,68,0.0,0.0,96,0.00,,,0.08,Wunderground v.1.15,2013-11-22 02:15:00,
2013-11-21 20:18:00,61.2,60.0,30.03,ENE,67,0.0,2.0,96,0.01,,---,0.08,VWS V14.01,2013-11-22 02:18:00,
2013-11-21 20:20:00,61.2,60.1,30.03,ENE,59,0.0,1.0,96,0.00,,,0.08,Wunderground v.1.15,2013-11-22 02:20:00,
2013-11-21 20:23:00,61.2,60.0,30.03,NE,51,0.0,2.0,96,0.01,,---,0.08,VWS V14.01,2013-11-22 02:23:00,
2013-11-21 20:25:00,61.0,59.9,30.03,NE,51,1.0,2.0,96,0.00,,,0.08,Wunderground v.1.15,2013-11-22 02:25:00,
2013-11-21 20:28:00,61.0,59.9,30.03,NE,37,2.0,2.0,96,0.01,,---,0.08,VWS V14.01,2013-11-22 02:28:00,
2013-11-21 20:30:00,60.9,59.8,30.03,NE,44,1.0,1.0,96,0.00,,,0.08,Wunderground v.1.15,2013-11-22 02:30:00,
2013-11-21 20:34:00,60.9,59.8,30.03,NE,35,0.0,0.0,96,0.01,,---,0.08,VWS V14.01,2013-11-22 02:34:00,
2013-11-21 20:35:00,60.9,59.8,30.03,NE,35,1.0,1.0,96,0.00,,,0.08,Wunderground v.1.15,2013-11-22 02:35:00,
2013-11-21 20:39:00,60.7,59.6,30.02,NE,35,0.0,0.0,96,0.01,,---,0.08,VWS V14.01,2013-11-22 02:39:00,
2013-11-21 20:44:00,60.5,59.4,30.02,NE,35,0.0,1.0,96,0.01,,---,0.08,VWS V14.01,2013-11-22 02:44:00,
2013-11-21 20:45:00,60.5,59.4,30.02,NE,35,0.0,1.0,96,0.00,,,0.08,Wunderground v.1.15,2013-11-22 02:45:00,
2013-11-21 20:49:00,60.5,59.4,30.02,NE,35,0.0,2.0,96,0.01,,---,0.08,VWS V14.01,2013-11-22 02:49:00,
2013-11-21 20:50:00,60.5,59.4,30.02,NE,35,0.0,0.0,96,0.00,,,0.08,Wunderground v.1.15,2013-11-22 02:50:00,
2013-11-21 20:54:00,60.7,59.8,30.03,East,88,0.0,1.0,97,0.10,,---,0.17,VWS V14.01,2013-11-22 02:54:00,
2013-11-21 20:55:00,60.7,59.8,30.03,East,88,0.0,1.0,97,0.86,,,0.17,Wunderground v.1.15,2013-11-22 02:55:00,
2013-11-21 21:00:00,61.0,60.2,30.03,East,85,0.0,3.0,97,0.11,,---,0.18,VWS V14.01,2013-11-22 03:00:00,
2013-11-21 21:05:00,61.0,60.2,30.03,East,85,0.0,0.0,97,0.11,,---,0.18,VWS V14.01,2013-11-22 03:05:00,
2013-11-21 21:10:00,61.0,60.2,30.03,East,85,0.0,0.0,97,0.10,,---,0.18,VWS V14.01,2013-11-22 03:10:00,
2013-11-21 21:15:00,61.0,60.1,30.03,East,85,0.0,0.0,97,0.04,,,0.18,Wunderground v.1.15,2013-11-22 03:15:00,
2013-11-21 21:20:00,61.2,60.3,30.02,East,85,0.0,0.0,97,0.00,,,0.18,Wunderground v.1.15,2013-11-22 03:20:00,
2013-11-21 21:25:00,61.3,60.4,30.02,East,84,0.0,0.0,97,0.00,,,0.18,Wunderground v.1.15,2013-11-22 03:25:00,
2013-11-21 21:30:00,61.5,60.6,30.03,East,84,0.0,0.0,97,0.00,,,0.18,Wunderground v.1.15,2013-11-22 03:30:00,
2013-11-21 21:35:00,61.6,60.7,30.03,East,84,0.0,0.0,97,0.00,,,0.18,Wunderground v.1.15,2013-11-22 03:35:00,
2013-11-21 21:36:00,61.6,60.7,30.03,East,84,0.0,0.0,97,0.10,,---,0.18,VWS V14.01,2013-11-22 03:36:00,
2013-11-21 21:40:00,62.0,61.1,30.03,East,84,0.0,0.0,97,0.00,,,0.18,Wunderground v.1.15,2013-11-22 03:40:00,
2013-11-21 21:41:00,62.0,61.1,30.03,East,84,0.0,0.0,97,0.10,,---,0.18,VWS V14.01,2013-11-22 03:41:00,
2013-11-21 21:45:00,62.0,61.1,30.03,East,84,0.0,0.0,97,0.00,,,0.18,Wunderground v.1.15,2013-11-22 03:45:00,
2013-11-21 21:46:00,62.0,61.1,30.03,East,84,0.0,0.0,97,0.10,,---,0.18,VWS V14.01,2013-11-22 03:46:00,
2013-11-21 21:50:00,62.1,61.2,30.03,East,84,0.0,0.0,97,0.00,,,0.18,Wunderground v.1.15,2013-11-22 03:50:00,
2013-11-21 21:51:00,62.1,61.2,30.03,East,84,0.0,0.0,97,0.10,,---,0.18,VWS V14.01,2013-11-22 03:51:00,
2013-11-21 21:56:00,62.1,61.2,30.03,East,84,0.0,0.0,97,0.10,,---,0.18,VWS V14.01,2013-11-22 03:56:00,
2013-11-21 22:00:00,62.1,61.2,30.03,East,84,0.0,0.0,97,0.00,,,0.18,Wunderground v.1.15,2013-11-22 04:00:00,
2013-11-21 22:01:00,62.1,61.2,30.03,East,84,0.0,0.0,97,0.00,,---,0.18,VWS V14.01,2013-11-22 04:01:00,
2013-11-21 22:05:00,62.3,61.4,30.03,East,84,0.0,0.0,97,0.00,,,0.18,Wunderground v.1.15,2013-11-22 04:05:00,
2013-11-21 22:06:00,62.3,61.4,30.03,East,84,0.0,0.0,97,0.00,,---,0.18,VWS V14.01,2013-11-22 04:06:00,
2013-11-21 22:10:00,62.3,61.4,30.03,East,84,0.0,0.0,97,0.00,,,0.18,Wunderground v.1.15,2013-11-22 04:10:00,
2013-11-21 22:11:00,62.3,61.4,30.03,East,84,0.0,0.0,97,0.00,,---,0.18,VWS V14.01,2013-11-22 04:11:00,
2013-11-21 22:15:00,62.3,61.4,30.03,East,84,0.0,0.0,97,0.00,,,0.18,Wunderground v.1.15,2013-11-22 04:15:00,
2013-11-21 22:17:00,62.3,61.4,30.03,East,84,0.0,0.0,97,0.00,,---,0.18,VWS V14.01,2013-11-22 04:17:00,
2013-11-21 22:20:00,62.3,61.4,30.03,ENE,75,0.0,0.0,97,0.00,,,0.18,Wunderground v.1.15,2013-11-22 04:20:00,
2013-11-21 22:22:00,62.3,61.4,30.04,ENE,75,0.0,0.0,97,0.00,,---,0.18,VWS V14.01,2013-11-22 04:22:00,
2013-11-21 22:25:00,62.3,61.4,30.04,ENE,75,0.0,0.0,97,0.00,,,0.18,Wunderground v.1.15,2013-11-22 04:25:00,
2013-11-21 22:27:00,62.3,61.4,30.05,NW,306,3.0,3.0,97,0.00,,---,0.18,VWS V14.01,2013-11-22 04:27:00,
2013-11-21 22:30:00,61.3,60.4,30.04,WNW,296,1.0,1.0,97,0.00,,,0.18,Wunderground v.1.15,2013-11-22 04:30:00,
2013-11-21 22:32:00,61.3,60.4,30.04,NW,307,1.0,1.0,97,0.00,,---,0.18,VWS V14.01,2013-11-22 04:32:00,
2013-11-21 22:35:00,60.2,59.1,30.04,NNW,334,1.0,1.0,96,0.00,,,0.18,Wunderground v.1.15,2013-11-22 04:35:00,
2013-11-21 22:37:00,60.1,59.0,30.04,NNW,334,0.0,2.0,96,0.00,,---,0.18,VWS V14.01,2013-11-22 04:37:00,
2013-11-21 22:40:00,60.1,59.0,30.04,NNW,334,1.0,1.0,96,0.00,,,0.18,Wunderground v.1.15,2013-11-22 04:40:00,
2013-11-21 22:42:00,60.1,59.0,30.04,NE,37,0.0,1.0,96,0.00,,---,0.18,VWS V14.01,2013-11-22 04:42:00,
2013-11-21 22:45:00,60.1,59.0,30.04,NNW,338,1.0,2.0,96,0.00,,,0.18,Wunderground v.1.15,2013-11-22 04:45:00,
2013-11-21 22:47:00,60.4,59.3,30.03,North,8,5.0,5.0,96,0.00,,---,0.18,VWS V14.01,2013-11-22 04:47:00,
2013-11-21 22:50:00,60.4,59.3,30.03,North,1,2.0,2.0,96,0.00,,,0.18,Wunderground v.1.15,2013-11-22 04:50:00,
2013-11-21 22:52:00,60.5,59.4,30.03,NNE,32,1.0,6.0,96,0.00,,---,0.18,VWS V14.01,2013-11-22 04:52:00,
2013-11-21 22:55:00,60.5,59.4,30.05,NNE,32,0.0,2.0,96,0.00,,,0.18,Wunderground v.1.15,2013-11-22 04:55:00,
2013-11-21 22:57:00,60.5,59.4,30.05,NNE,32,0.0,6.0,96,0.00,,---,0.18,VWS V14.01,2013-11-22 04:57:00,
2013-11-21 23:00:00,60.5,59.4,30.04,NNE,30,3.0,3.0,96,0.00,,,0.18,Wunderground v.1.15,2013-11-22 05:00:00,
2013-11-21 23:01:00,60.5,59.4,30.04,NNE,30,3.0,3.0,96,0.00,,---,0.18,VWS V14.01,2013-11-22 05:01:00,
2013-11-21 23:05:00,60.5,59.4,30.05,NNE,27,3.0,3.0,96,0.00,,,0.18,Wunderground v.1.15,2013-11-22 05:05:00,
2013-11-21 23:06:00,60.5,59.4,30.06,West,262,3.0,3.0,96,0.00,,---,0.18,VWS V14.01,2013-11-22 05:06:00,
2013-11-21 23:10:00,60.5,59.4,30.08,West,262,3.0,3.0,96,0.00,,,0.18,Wunderground v.1.15,2013-11-22 05:10:00,
2013-11-21 23:11:00,60.5,59.4,30.08,West,262,3.0,3.0,96,0.00,,---,0.18,VWS V14.01,2013-11-22 05:11:00,
2013-11-21 23:15:00,60.5,59.4,30.10,West,262,3.0,3.0,96,0.00,,,0.18,Wunderground v.1.15,2013-11-22 05:15:00,
2013-11-21 23:17:00,60.5,59.4,30.11,WSW,252,7.0,7.0,96,0.00,,---,0.18,VWS V14.01,2013-11-22 05:17:00,
2013-11-21 23:20:00,60.5,59.4,30.10,WSW,252,7.0,7.0,96,0.00,,,0.18,Wunderground v.1.15,2013-11-22 05:20:00,
2013-11-21 23:22:00,60.5,59.4,30.09,WSW,252,7.0,7.0,96,0.00,,---,0.18,VWS V14.01,2013-11-22 05:22:00,
2013-11-21 23:25:00,60.5,59.4,30.05,WSW,252,7.0,7.0,96,0.00,,,0.18,Wunderground v.1.15,2013-11-22 05:25:00,
2013-11-21 23:27:00,60.5,59.4,30.04,North,3,3.0,7.0,96,0.00,,---,0.18,VWS V14.01,2013-11-22 05:27:00,
2013-11-21 23:30:00,60.5,59.4,30.04,North,3,3.0,3.0,96,0.00,,,0.18,Wunderground v.1.15,2013-11-22 05:30:00,
2013-11-21 23:32:00,61.3,60.2,30.04,North,2,2.0,5.0,96,0.63,,---,0.81,VWS V14.01,2013-11-22 05:32:00,
2013-11-21 23:35:00,61.3,60.2,30.03,North,2,5.0,5.0,96,0.00,,,0.81,Wunderground v.1.15,2013-11-22 05:35:00,
2013-11-21 23:37:00,61.3,60.2,30.03,North,2,6.0,6.0,96,0.63,,---,0.81,VWS V14.01,2013-11-22 05:37:00,
2013-11-21 23:40:00,61.3,60.2,30.04,North,1,0.0,0.0,96,0.10,,,0.81,Wunderground v.1.15,2013-11-22 05:40:00,
2013-11-21 23:42:00,61.6,60.5,30.04,North,5,5.0,6.0,96,0.63,,---,0.81,VWS V14.01,2013-11-22 05:42:00,
2013-11-21 23:45:00,61.6,61.0,30.05,North,6,3.0,3.0,98,0.09,,,0.83,Wunderground v.1.15,2013-11-22 05:45:00,
2013-11-21 23:47:00,61.6,61.0,30.05,NNE,18,2.0,11.0,98,0.66,,---,0.84,VWS V14.01,2013-11-22 05:47:00,
2013-11-21 23:50:00,61.8,61.2,30.05,NNE,18,3.0,3.0,98,0.24,,,0.85,Wunderground v.1.15,2013-11-22 05:50:00,
2013-11-21 23:52:00,61.8,61.2,30.05,NNE,18,0.0,0.0,98,0.67,,---,0.85,VWS V14.01,2013-11-22 05:52:00,
2013-11-21 23:55:00,61.6,61.0,30.05,NNE,18,2.0,3.0,98,0.13,,,0.86,Wunderground v.1.15,2013-11-22 05:55:00,
2013-11-21 23:57:00,61.6,61.0,30.05,NNE,18,0.0,0.0,98,0.68,,---,0.86,VWS V14.01,2013-11-22 05:57:00,